[[{"header":{"parameterUnit":"m.s-1","parameterCategory":1,"la1":30.2991,"la2":30.254,"lo1":-89.0895,"lo2":-89.0444,"dy":0.0017,"dx":0.0017,"nx":28,"ny":28,"refTime":"2025-08-18T21:00:00:Z","depth":0,"parameterNumber":2,"parameterNumberName":"U-component_of_WINDS"},"data":[0,0,0,0,0,0,0,0,0,0,0,0,0,0,0,0,0,0,0,0,0,0,0,0,0,0,0,0,0,0,0,0,0,0,0,0,0,0,0,0,0,0,0,0,0,0,0,0,0,0,0,0,0,0,0,0,0,0,-0.7768,-0.7768,0,-0.773,-0.773,-0.7729,-0.7684,-0.7683,-0.7682,-0.7682,-0.7645,-0.7644,-0.7644,0,0,0,0,0,0,0,0,0,0,0,0,0,-0.7806,-0.7805,-0.7769,-0.7768,-0.7768,-0.773,-0.773,-0.7729,-0.7684,-0.7683,-0.7682,-0.7681,-0.7645,-0.7644,-0.7644,0,0,0,0,0,0,0,0,0,0,0,0,0,-0.7781,-0.7805,-0.7769,-0.774,-0.7737,-0.773,-0.773,-0.7729,-0.7684,-0.7683,-0.7682,-0.7681,-0.7645,-0.7644,-0.7644,-0.7662,0,0,-0.7642,-0.7642,0,0,0,0,0,0,0,0,-0.7782,-0.7779,-0.7745,-0.7742,-0.7739,-0.771,-0.7729,-0.7707,-0.7684,-0.7704,-0.7682,-0.768,-0.7668,-0.7665,-0.766,-0.766,-0.7659,-0.7642,-0.7642,-0.7642,-0.7642,0,0,0,0,0,0,0,-0.7784,-0.7781,-0.7753,-0.7745,-0.7741,-0.7731,-0.7726,-0.7725,-0.7693,-0.7703,-0.7699,-0.7695,-0.7666,-0.7661,-0.7659,-0.7658,-0.7642,-0.7642,-0.7642,-0.7642,-0.7672,-0.7673,0,0,0,0,0,0,-0.7789,-0.7782,-0.7755,-0.7752,-0.7758,-0.7731,-0.7725,-0.7721,-0.7692,-0.7687,-0.7696,-0.7693,-0.7662,-0.766,-0.7658,-0.7678,-0.7642,-0.7641,-0.7641,-0.7671,-0.7672,-0.7674,0,0,0,0,0,0,-0.779,-0.7787,-0.7756,-0.7766,-0.7762,-0.7731,-0.7726,-0.7721,-0.7716,-0.7687,-0.7682,-0.7697,-0.7661,-0.7658,-0.7661,-0.7676,-0.7641,-0.7641,-0.767,-0.7671,-0.7673,-0.7717,0,0,0,0,0,0,-0.7792,-0.7788,-0.7794,-0.7767,-0.7761,-0.776,-0.7727,-0.7721,-0.7715,-0.771,-0.7687,-0.7682,-0.766,-0.7662,-0.7661,-0.7674,-0.764,-0.7668,-0.767,-0.7672,-0.7714,-0.772,-0.7725,0,0,0,0,0,-0.7793,-0.7808,-0.7794,-0.7791,-0.7768,-0.7761,-0.7757,-0.7732,-0.7716,-0.7722,-0.7704,-0.7682,-0.7674,-0.7663,-0.7661,-0.7675,-0.7667,-0.767,-0.7672,-0.7712,-0.7719,-0.7725,0,0,0,0,0,0,-0.7839,-0.7804,-0.7788,-0.7795,-0.7781,-0.7753,-0.776,-0.774,-0.7731,-0.7728,-0.7697,-0.7692,-0.7699,-0.7687,-0.7675,-0.7691,-0.7668,-0.767,-0.7699,-0.7705,-0.771,-0.7714,-0.764,0,0,0,0,0,-0.785,-0.7846,-0.7816,-0.7825,-0.7819,-0.7791,-0.7786,-0.7768,-0.7752,-0.7747,-0.7729,-0.7715,-0.771,-0.7707,-0.77,-0.7712,-0.7707,-0.7721,-0.7726,-0.7731,-0.7733,-0.774,-0.7746,-0.7682,-0.7682,-0.7682,0,0,-0.7872,-0.7853,-0.7852,-0.7834,-0.782,-0.7818,-0.7786,-0.7785,-0.7783,-0.7747,-0.7748,-0.7735,-0.7718,-0.7726,-0.7728,-0.7716,-0.775,-0.7734,-0.7738,-0.7738,-0.7743,-0.7749,-0.7755,-0.7683,-0.7683,-0.7683,0,0,-0.7912,-0.7896,-0.7902,-0.789,-0.787,-0.7851,-0.7853,-0.7827,-0.7817,-0.7818,-0.7791,-0.7789,-0.7779,-0.7769,-0.7762,-0.7798,-0.7778,-0.7797,-0.7825,-0.7832,-0.7837,-0.7842,-0.7855,-0.786,-0.7799,-0.7799,-0.7799,0,-0.7942,-0.7937,-0.7908,-0.7908,-0.7901,-0.7868,-0.7874,-0.7863,-0.7843,-0.784,-0.7826,-0.7814,-0.78,-0.7805,-0.7814,-0.781,-0.7811,-0.78,-0.7839,-0.7843,-0.7846,-0.7859,-0.7864,-0.7802,-0.7802,-0.7801,-0.7801,0,-0.7976,-0.7972,-0.798,-0.796,-0.7954,-0.7957,-0.793,-0.7927,-0.791,-0.7893,-0.7895,-0.7877,-0.7866,-0.7866,-0.7849,-0.7869,-0.7862,-0.7844,-0.782,-0.7855,-0.7867,-0.7872,-0.7805,-0.7804,-0.7804,-0.7803,0,0,-0.8044,-0.8008,-0.8011,-0.8002,-0.7978,-0.7975,-0.7977,-0.7966,-0.7965,-0.7952,-0.7954,-0.7947,-0.793,-0.7923,-0.7904,-0.791,-0.7941,-0.7891,-0.789,-0.7901,-0.7963,-0.7978,-0.7984,-0.7927,-0.7928,-0.7928,-0.7965,0,-0.808,-0.8081,-0.8055,-0.8064,-0.8061,-0.8029,-0.8031,-0.8017,-0.8001,-0.7997,-0.798,-0.7976,-0.7953,-0.7949,-0.7953,-0.7936,-0.7953,-0.7933,-0.793,-0.793,-0.7935,-0.799,-0.8005,-0.804,-0.7969,-0.797,-0.797,0,-0.8122,-0.8111,-0.8119,-0.8094,-0.8092,-0.8095,-0.8082,-0.8079,-0.8063,-0.8051,-0.8043,-0.8021,-0.8023,-0.8,-0.8002,-0.7989,-0.7986,-0.7978,-0.7979,-0.7978,-0.7953,-0.7991,-0.805,-0.8056,-0.7977,-0.7976,-0.7976,0,-0.8172,-0.8159,-0.8162,-0.8155,-0.8126,-0.8129,-0.8117,-0.81,-0.8095,-0.8085,-0.8082,-0.8072,-0.8067,-0.8061,-0.8038,-0.8023,-0.8043,-0.8018,-0.8035,-0.8035,-0.8041,-0.8041,-0.8102,-0.8038,-0.8038,-0.8038,-0.8038,0,-0.8215,-0.8222,-0.8184,-0.8186,-0.8193,-0.8163,-0.8171,-0.8156,-0.8141,-0.8141,-0.8113,-0.8113,-0.8082,-0.8079,-0.8061,-0.8067,-0.8065,-0.8056,-0.8051,-0.8059,-0.806,-0.8057,-0.8055,-0.8039,-0.8039,-0.8039,-0.8038,0,-0.8272,-0.8247,-0.8249,-0.8221,-0.8214,-0.8221,-0.8198,-0.8199,-0.8182,-0.8182,-0.818,-0.8153,-0.8148,-0.8124,-0.8114,-0.8102,-0.8114,-0.8104,-0.812,-0.8117,-0.8135,-0.8134,-0.8196,-0.8204,-0.8135,-0.8136,-0.8136,0,-0.8302,-0.8306,-0.8279,-0.8276,-0.8266,-0.8262,-0.8256,-0.8228,-0.8223,-0.8205,-0.8209,-0.8202,-0.8195,-0.8189,-0.8169,-0.8162,-0.8152,-0.8174,-0.8151,-0.8159,-0.8153,-0.8154,-0.8155,-0.818,-0.8181,-0.8181,-0.8182,0,-0.8358,-0.8345,-0.8338,-0.8327,-0.8321,-0.8311,-0.8299,-0.8298,-0.8267,-0.8264,-0.8258,-0.8252,-0.8242,-0.8236,-0.8225,-0.8214,-0.8193,-0.8189,-0.8193,-0.8201,-0.821,-0.8207,-0.8134,-0.8188,-0.8188,-0.8187,-0.8187,-0.8187,-0.8403,-0.8406,-0.8387,-0.838,-0.8368,-0.8357,-0.8357,-0.834,-0.8334,-0.8323,-0.8306,-0.8303,-0.8287,-0.827,-0.8261,-0.8259,-0.8247,-0.8252,-0.8254,-0.8256,-0.826,-0.821,-0.8257,-0.8257,-0.8256,-0.8256,-0.8256,0,-0.8459,-0.8445,-0.8439,-0.8423,-0.8417,-0.8397,-0.8383,-0.838,-0.8377,-0.8364,-0.8357,-0.8351,-0.8345,-0.8324,-0.8316,-0.8319,-0.8309,-0.8318,-0.8318,-0.8316,-0.827,-0.8269,-0.8326,-0.8326,-0.8326,-0.8326,-0.8326,-0.8326,-0.8487,-0.849,-0.8475,-0.8472,-0.8458,-0.8454,-0.8448,-0.8439,-0.8428,-0.8422,-0.8416,-0.8402,-0.8387,-0.8377,-0.8371,-0.8365,-0.8364,-0.8376,-0.8367,-0.8326,-0.8319,-0.8313,-0.8311,-0.8376,-0.8376,-0.8413,-0.8413,-0.8413]},{"header":{"parameterUnit":"m.s-1","parameterCategory":1,"la1":30.2991,"la2":30.254,"lo1":-89.0895,"lo2":-89.0444,"dy":0.0017,"dx":0.0017,"nx":28,"ny":28,"refTime":"2025-08-18T21:00:00:Z","depth":0,"parameterNumber":3,"parameterNumberName":"V-component_of_WINDS"},"data":[0,0,0,0,0,0,0,0,0,0,0,0,0,0,0,0,0,0,0,0,0,0,0,0,0,0,0,0,0,0,0,0,0,0,0,0,0,0,0,0,0,0,0,0,0,0,0,0,0,0,0,0,0,0,0,0,0,0,3.8202,3.8202,0,3.8198,3.8198,3.8198,3.8156,3.8155,3.8154,3.8153,3.8148,3.8149,3.815,0,0,0,0,0,0,0,0,0,0,0,0,0,3.8174,3.8175,3.8202,3.8202,3.8202,3.8198,3.8198,3.8198,3.8156,3.8155,3.8153,3.8152,3.8148,3.8149,3.815,0,0,0,0,0,0,0,0,0,0,0,0,0,3.818,3.8175,3.8202,3.8181,3.8179,3.8198,3.8198,3.8198,3.8156,3.8155,3.8153,3.8151,3.8147,3.8149,3.815,3.819,0,0,3.8154,3.8155,0,0,0,0,0,0,0,0,3.8179,3.8181,3.8184,3.8182,3.818,3.8176,3.8186,3.8195,3.8157,3.8165,3.8153,3.8151,3.8159,3.8159,3.8161,3.8189,3.8189,3.8154,3.8155,3.8155,3.8156,0,0,0,0,0,0,0,3.8179,3.8181,3.82,3.8184,3.8182,3.8171,3.817,3.8188,3.8171,3.8164,3.8161,3.8161,3.8157,3.816,3.8161,3.8189,3.8154,3.8155,3.8156,3.8156,3.825,3.8252,0,0,0,0,0,0,3.8182,3.8181,3.8201,3.82,3.8176,3.8173,3.8172,3.8179,3.817,3.8167,3.8162,3.8159,3.8159,3.816,3.8161,3.8207,3.8155,3.8157,3.8157,3.8248,3.825,3.8252,0,0,0,0,0,0,3.8181,3.8184,3.8201,3.819,3.8191,3.8175,3.8183,3.8179,3.8182,3.8169,3.8166,3.8169,3.8158,3.8159,3.8183,3.8206,3.8157,3.8158,3.8246,3.8249,3.8251,3.8299,0,0,0,0,0,0,3.8181,3.8184,3.8199,3.819,3.8192,3.8223,3.8184,3.8181,3.8185,3.8181,3.8174,3.8172,3.8157,3.8181,3.8184,3.8207,3.8159,3.8244,3.8247,3.825,3.8295,3.8303,3.8309,0,0,0,0,0,3.818,3.8212,3.82,3.8202,3.821,3.8224,3.8225,3.8207,3.8187,3.8202,3.8193,3.8172,3.8203,3.8184,3.8187,3.821,3.8243,3.8246,3.825,3.8292,3.8301,3.8309,0,0,0,0,0,0,3.8223,3.821,3.8197,3.8227,3.8227,3.8217,3.8235,3.8218,3.8223,3.8219,3.8197,3.8196,3.8223,3.8219,3.8198,3.8249,3.8219,3.8224,3.825,3.8258,3.8265,3.8265,3.816,0,0,0,0,0,3.8236,3.8249,3.8237,3.8266,3.8266,3.8251,3.8257,3.8243,3.8242,3.8242,3.8235,3.8235,3.8245,3.8251,3.826,3.8295,3.8293,3.8312,3.8319,3.8325,3.8329,3.8347,3.8356,3.8265,3.8265,3.8265,0,0,3.8263,3.8258,3.8267,3.8274,3.8273,3.8286,3.8251,3.8267,3.8277,3.8244,3.8266,3.8262,3.826,3.829,3.8302,3.8287,3.8354,3.833,3.8335,3.8336,3.8352,3.8361,3.8369,3.8267,3.8267,3.8266,0,0,3.832,3.8317,3.834,3.834,3.8338,3.8328,3.8334,3.8327,3.8322,3.8344,3.832,3.8332,3.8349,3.8349,3.8351,3.8409,3.839,3.8413,3.8449,3.8467,3.8474,3.848,3.8501,3.8508,3.8417,3.8417,3.8417,0,3.8353,3.8373,3.8354,3.8372,3.8376,3.8348,3.8371,3.8371,3.8372,3.8376,3.8359,3.8381,3.8378,3.8407,3.8421,3.8424,3.843,3.8413,3.8475,3.8481,3.8486,3.8506,3.8513,3.842,3.8419,3.8419,3.8419,0,3.8415,3.8429,3.8448,3.845,3.8456,3.8477,3.8461,3.847,3.8456,3.8448,3.8471,3.8467,3.8474,3.848,3.8466,3.8508,3.8498,3.8479,3.8448,3.8498,3.8516,3.8523,3.8424,3.8423,3.8422,3.8421,0,0,3.8497,3.8489,3.8497,3.8497,3.8494,3.8505,3.8524,3.8532,3.8539,3.8541,3.8557,3.8573,3.8555,3.8558,3.8545,3.8561,3.8607,3.8539,3.8539,3.8551,3.8651,3.8666,3.8674,3.8594,3.8596,3.8597,3.8651,0,3.8551,3.8584,3.8568,3.8603,3.8616,3.8589,3.8607,3.8607,3.86,3.861,3.8602,3.8614,3.8589,3.8591,3.8606,3.8598,3.8626,3.8594,3.8608,3.8609,3.8609,3.8684,3.8699,3.875,3.8658,3.8659,3.866,0,3.8618,3.8623,3.8659,3.8654,3.8659,3.8675,3.868,3.869,3.869,3.8684,3.8688,3.8671,3.869,3.8661,3.8687,3.8665,3.8671,3.8668,3.8669,3.8669,3.8637,3.8685,3.8766,3.8774,3.8671,3.867,3.8669,0,3.8673,3.869,3.8714,3.8715,3.871,3.8722,3.872,3.8718,3.8724,3.8729,3.8732,3.874,3.8743,3.875,3.8735,3.8716,3.8763,3.8733,3.8758,3.8759,3.8769,3.8768,3.8852,3.8774,3.8774,3.8773,3.8773,0,3.8735,3.8758,3.8739,3.8753,3.8778,3.8761,3.8786,3.8782,3.878,3.8794,3.8772,3.8785,3.8766,3.8777,3.8766,3.8789,3.8791,3.8786,3.8783,3.8788,3.8788,3.879,3.8786,3.8775,3.8775,3.8775,3.8774,0,3.88,3.8789,3.8813,3.8806,3.8805,3.8824,3.8819,3.8832,3.8824,3.8841,3.8844,3.8832,3.8844,3.8831,3.8842,3.8834,3.8866,3.8857,3.8866,3.8863,3.8889,3.8886,3.8976,3.8986,3.8902,3.8903,3.8904,0,3.884,3.8857,3.8853,3.886,3.886,3.8872,3.8878,3.8862,3.8869,3.887,3.8883,3.8894,3.8901,3.8922,3.8914,3.8922,3.8913,3.8944,3.8914,3.8919,3.8913,3.8912,3.8914,3.895,3.8951,3.8952,3.8952,0,3.8911,3.8905,3.8914,3.8922,3.8929,3.8934,3.8938,3.8945,3.8928,3.8937,3.8949,3.8955,3.8967,3.8977,3.8984,3.8982,3.8965,3.8962,3.8968,3.8973,3.8977,3.8975,3.8881,3.896,3.8959,3.8959,3.8958,3.8958,3.8964,3.8979,3.8978,3.8989,3.899,3.8994,3.9007,3.9001,3.9011,3.9019,3.9009,3.9024,3.9024,3.9031,3.9031,3.9043,3.903,3.9039,3.9041,3.9043,3.9047,3.8976,3.9044,3.9044,3.9044,3.9043,3.9043,0,3.9034,3.9033,3.9043,3.9049,3.9058,3.9042,3.9045,3.9053,3.9067,3.9069,3.9077,3.9091,3.9101,3.9095,3.9104,3.9114,3.9107,3.9117,3.9116,3.9116,3.9058,3.9052,3.9123,3.9123,3.9123,3.9123,3.9123,3.9123,3.9071,3.9094,3.9088,3.9112,3.911,3.9125,3.9129,3.9132,3.9133,3.9151,3.9159,3.9155,3.9153,3.9162,3.9171,3.9169,3.9173,3.9186,3.9181,3.9128,3.912,3.9112,3.9106,3.9187,3.9187,3.9237,3.9237,3.9238]}]]